"Pseudo-MPEC" for P11gRS3

Created 2021 Jun 11 7:07:15 UT using Find_Orb

Click here for an explanation of pseudo-MPECs

 
 Astrometry: 
     P11gRS3  C2021 06 09k@;C=XAstrometrypHCm,K,PSfqhmO/dVS1f(bZa-T#Pq5Ft3n^TF51
     P11gRS3  C2021 06 09D4ad_OWh^uDk,1MHE5/yl_K'`E:.KSbIA#3'RDIj?n\%Y/(XD716F51
     P11gRS3  C2021 06 09w6r7[fE`?a/advB@k,99h?rR!*v8giR9h%%Nyf8:P46F/'-HuOAGF51
     P11gRS3 KC2021 06 11'BRX[nE$8_redacted;h=dqpQc0[Q\`\icW*$'VX$W@%o%Gfj]u[H21
     P11gRS3 KC2021 06 11G03ls^[6;Tu?TPfTclickC83l[XbSo75qGHs:uWO2herer]-kk/AH21
     P11gRS3 KC2021 06 11W'v?/l7D%yxtj3fork85,0u5vms)_dlvMVexplanationPmfw^08H21

Station data:
(F51) Pan-STARRS 1, Haleakala  (N20.707235 W156.255910)  US/Hawaii.
   Observers N. Primak, A. Schultz, S. Watters, J. Thiel, T. Goggia. Measurer
   PS1 Science Consortium. 1.8-m Ritchey-Chrétien + CCD.
(H21) Astronomical Research Observatory, Westfield  (N39.483057 W87.968270)
   US/Illinois. 0.76-m f/3.0 astrograph + CCD.

Orbital elements:  P11gRS3
   Perihelion 2021 Apr 23.988642 +/- 6.20609 TT = 23:43:38 (JD 2459328.488642)
Epoch 2021 Jun 11.0 TT = JDT 2459376.5   Earth MOID: 0.0148   Ma: 0.0204
M  22.85651572 +/- 7.3615710        (J2000 ecliptic)          AutoNEOCP
n   0.47606476 +/- 0.106371         Peri.  252.87530 +/- 18.246876
a   1.62439642 +/- 0.241961         Node   312.21252 +/- 11.437776
e   0.3898967 +/- 0.076062          Incl.    0.99615 +/- 0.3102818
P   2.07/756.19d           H 25.0   G  0.15   U 11.2  
q 0.99104961 +/- 0.0300349    Q 2.25774322 +/- 0.520014
From 6 observations 2021 June 9-11 (44.9 hr); mean residual 0".12
Residuals in arcseconds: 
210609 F51  .04+  .06-    210609 F51  .04+  .04-    210611 H21  .25+  .17-    
210609 F51  .08-  .10+    210611 H21  .07-  .17+    210611 H21  .18-  .01-    

Ephemerides (geocentric):
Date (UTC) HH   RA              Dec         delta   r     elong  mag " sig PA
---- -- -- --  -------------   -----------  ------ ------ -----  --- ---- ---
2021 06 11 07  15 07 34.923   -26 05 10.42  .11100 1.1132 150.3 21.7 18.3 141
2021 06 11 08  15 07 54.624   -26 05 28.78  .11117 1.1134 150.4 21.7 20.7 134
2021 06 11 09  15 08 14.275   -26 05 46.93  .11134 1.1136 150.4 21.7 23.5 129
2021 06 11 10  15 08 33.875   -26 06 04.85  .11151 1.1138 150.4 21.7 26.5 125
2021 06 11 11  15 08 53.424   -26 06 22.56  .11168 1.1140 150.5 21.7 29.7 121
2021 06 11 12  15 09 12.924   -26 06 40.06  .11186 1.1142 150.5 21.7 33.2 118
2021 06 11 13  15 09 32.373   -26 06 57.34  .11203 1.1143 150.5 21.7 36.7 116
2021 06 11 14  15 09 51.772   -26 07 14.40  .11220 1.1145 150.6 21.7 40.5 114
2021 06 11 15  15 10 11.121   -26 07 31.26  .11238 1.1147 150.6 21.7 44.3 112
2021 06 11 16  15 10 30.420   -26 07 47.90  .11255 1.1149 150.6 21.7 48.3 110
2021 06 11 17  15 10 49.670   -26 08 04.34  .11272 1.1151 150.7 21.7 52.5 109
2021 06 11 18  15 11 08.870   -26 08 20.57  .11290 1.1153 150.7 21.7 56.7 108
2021 06 11 19  15 11 28.021   -26 08 36.59  .11307 1.1155 150.7 21.7 61.1 107
2021 06 11 20  15 11 47.123   -26 08 52.41  .11325 1.1157 150.8 21.7 65.6 106
2021 06 11 21  15 12 06.175   -26 09 08.03  .11342 1.1159 150.8 21.7 70.1 105
2021 06 11 22  15 12 25.178   -26 09 23.44  .11360 1.1161 150.8 21.7 74.8 104
2021 06 11 23  15 12 44.133   -26 09 38.65  .11377 1.1162 150.9 21.7 79.6 104
2021 06 12 00  15 13 03.039   -26 09 53.67  .11395 1.1164 150.9 21.7 84.5 103
2021 06 12 01  15 13 21.896   -26 10 08.49  .11412 1.1166 150.9 21.7 89.5 102
2021 06 12 02  15 13 40.705   -26 10 23.11  .11430 1.1168 151.0 21.7 94.6 102
2021 06 12 03  15 13 59.466   -26 10 37.54  .11448 1.1170 151.0 21.7 99.8 101
2021 06 12 04  15 14 18.178   -26 10 51.77  .11465 1.1172 151.0 21.7  105 101
2021 06 12 05  15 14 36.842   -26 11 05.81  .11483 1.1174 151.1 21.7  110 101
2021 06 12 06  15 14 55.459   -26 11 19.66  .11501 1.1176 151.1 21.7  116 100
2021 06 12 07  15 15 14.027   -26 11 33.33  .11518 1.1178 151.1 21.7  121 100
2021 06 12 08  15 15 32.548   -26 11 46.80  .11536 1.1180 151.2 21.7  127 100
2021 06 12 09  15 15 51.022   -26 12 00.09  .11554 1.1182 151.2 21.7  133  99
2021 06 12 10  15 16 09.448   -26 12 13.19  .11572 1.1183 151.2 21.7  139  99
2021 06 12 11  15 16 27.826   -26 12 26.11  .11589 1.1185 151.3 21.7  144  99
2021 06 12 12  15 16 46.158   -26 12 38.84  .11607 1.1187 151.3 21.7  150  99
2021 06 12 13  15 17 04.443   -26 12 51.39  .11625 1.1189 151.3 21.7  156  98
2021 06 12 14  15 17 22.680   -26 13 03.77  .11643 1.1191 151.3 21.7  163  98
2021 06 12 15  15 17 40.871   -26 13 15.96  .11661 1.1193 151.4 21.7  169  98
2021 06 12 16  15 17 59.016   -26 13 27.98  .11679 1.1195 151.4 21.7  175  98
2021 06 12 17  15 18 17.114   -26 13 39.82  .11697 1.1197 151.4 21.7  181  97
2021 06 12 18  15 18 35.165   -26 13 51.48  .11715 1.1199 151.5 21.8  188  97
2021 06 12 19  15 18 53.171   -26 14 02.97  .11733 1.1201 151.5 21.8  194  97
2021 06 12 20  15 19 11.130   -26 14 14.29  .11751 1.1203 151.5 21.8  201  97
2021 06 12 21  15 19 29.043   -26 14 25.44  .11769 1.1205 151.5 21.8  208  97
2021 06 12 22  15 19 46.911   -26 14 36.41  .11787 1.1206 151.6 21.8  214  97
2021 06 12 23  15 20 04.733   -26 14 47.22  .11805 1.1208 151.6 21.8  221  96
2021 06 13 00  15 20 22.509   -26 14 57.86  .11823 1.1210 151.6 21.8  228  96
2021 06 13 01  15 20 40.240   -26 15 08.33  .11841 1.1212 151.7 21.8  235  96
2021 06 13 02  15 20 57.925   -26 15 18.64  .11860 1.1214 151.7 21.8  242  96
2021 06 13 03  15 21 15.566   -26 15 28.78  .11878 1.1216 151.7 21.8  249  96
2021 06 13 04  15 21 33.161   -26 15 38.76  .11896 1.1218 151.7 21.8  256  96
2021 06 13 05  15 21 50.712   -26 15 48.58  .11914 1.1220 151.8 21.8  264  96
2021 06 13 06  15 22 08.217   -26 15 58.23  .11932 1.1222 151.8 21.8  271  96